Weather History for Bloomington, IN

Change the Weather History Date:

Friday, January 26, 2007

  Actual Average Record
Temperature  
Mean Temperature 32 °F 30 °F  
Max Temperature 46 °F 39 °F 54 °F (2002)
Min Temperature 17 °F 21 °F -4 °F (2003)
Degree Days  
Heating Degree Days 34 35  
Month to date heating degree days 932  
Since 1 July heating degree days 3005  
Cooling Degree Days 0 0  
Month to date cooling degree days 0  
Year to date cooling degree days 0  
Moisture  
Dew Point 22 °F    
Average Humidity 64    
Maximum Humidity 81    
Minimum Humidity 49    
Precipitation  
Precipitation 0.00 in 0.08 in 0.54 in (2012)
Month to date precipitation 2.86  
Year to date precipitation 2.86  
Sea Level Pressure  
Sea Level Pressure 30.03 in    
Wind  
Wind Speed 7 mph (SSW)    
Max Wind Speed 20 mph    
Max Gust Speed 28 mph    
Visibility 10 miles    
Events      
T = Trace of Precipitation, MM = Missing Value Source: NWS Daily Summary

Daily Weather History Graph

Daily Weather History Graph

Search for Another Location

Airport:

Trip Planner

Search our weather history database for the weather conditions in past years. The results will help you decide how hot, cold, wet, or windy it might be!

Date:

Astronomy

Jan. 26, 2007 Rise Set
Actual Time 7:58 AM EST 6:00 PM EST
Civil Twilight 7:29 AM EST 6:28 PM EST
Nautical Twilight 6:57 AM EST 7:01 PM EST
Astronomical Twilight 6:25 AM EST 7:32 PM EST
Moon 12:01 PM EST (1/26) 1:55 AM EST (1/26)
Length of Visible Light 10h 59m
Length of Day
10h 01m
First Quarter, 58% of the Moon is Illuminated
Jan 26
First Quarter
Feb 2
Full
Feb 10
Last Quarter
Feb 17
New
Feb 24
First Quarter

Hourly Weather History & Observations

Time (EST) Temp. Windchill Dew Point Humidity Pressure Visibility Wind Dir Wind Speed Gust Speed Precip Events Conditions
12:53 AM 19.0 °F - 12.0 °F 74% 30.27 in 10.0 mi Calm Calm - N/A   Clear
1:53 AM 18.0 °F - 12.0 °F 78% 30.25 in 10.0 mi Calm Calm - N/A   Clear
2:53 AM 17.1 °F - 12.0 °F 81% 30.24 in 8.0 mi Calm Calm - N/A   Clear
3:53 AM 17.1 °F 10.0 °F 12.0 °F 81% 30.22 in 8.0 mi SW 4.6 mph - N/A   Clear
4:53 AM 18.0 °F 11.1 °F 12.0 °F 78% 30.20 in 9.0 mi SSW 4.6 mph - N/A   Clear
5:53 AM 19.9 °F 11.1 °F 12.9 °F 74% 30.18 in 10.0 mi South 6.9 mph - N/A   Clear
6:53 AM 19.9 °F 11.1 °F 12.9 °F 74% 30.17 in 10.0 mi South 6.9 mph - N/A   Clear
7:53 AM 19.9 °F 11.1 °F 12.9 °F 74% 30.16 in 10.0 mi South 6.9 mph - N/A   Clear
8:53 AM 21.9 °F 11.0 °F 15.1 °F 75% 30.14 in 10.0 mi South 10.4 mph - N/A   Clear
9:53 AM 27.0 °F 16.7 °F 18.0 °F 69% 30.13 in 10.0 mi South 11.5 mph - N/A   Clear
10:53 AM 33.1 °F 24.9 °F 21.0 °F 61% 30.11 in 10.0 mi South 10.4 mph - N/A   Clear
11:53 AM 37.0 °F 27.7 °F 24.1 °F 59% 30.07 in 10.0 mi SSW 16.1 mph - N/A   Clear
12:53 PM 41.0 °F 34.3 °F 25.0 °F 53% 30.02 in 10.0 mi SW 11.5 mph - N/A   Clear
1:53 PM 44.1 °F 36.5 °F 26.1 °F 49% 29.96 in 10.0 mi South 17.3 mph 24.2 mph N/A   Clear
2:53 PM 46.0 °F 39.6 °F 28.9 °F 51% 29.93 in 10.0 mi SSW 15.0 mph 21.9 mph N/A   Clear
3:53 PM 46.9 °F - 28.9 °F 50% 29.91 in 10.0 mi SW 13.8 mph 27.6 mph N/A   Clear
4:53 PM 46.9 °F - 28.9 °F 50% 29.89 in 10.0 mi SSW 11.5 mph 19.6 mph N/A   Clear
5:53 PM 45.0 °F 38.9 °F 28.0 °F 52% 29.87 in 10.0 mi SSW 12.7 mph 19.6 mph N/A   Clear
6:53 PM 44.1 °F 38.1 °F 28.0 °F 53% 29.87 in 10.0 mi South 11.5 mph - N/A   Clear
7:53 PM 43.0 °F 36.0 °F 28.9 °F 58% 29.86 in 10.0 mi SSW 13.8 mph - N/A   Clear
8:53 PM 44.1 °F 37.7 °F 28.9 °F 55% 29.85 in 10.0 mi SSW 12.7 mph - N/A   Clear
9:53 PM 44.1 °F 37.4 °F 30.0 °F 58% 29.85 in 10.0 mi SSW 13.8 mph 24.2 mph N/A   Clear
10:53 PM 43.0 °F 34.5 °F 30.0 °F 60% 29.83 in 10.0 mi SSW 19.6 mph 23.0 mph N/A   Clear
11:53 PM 44.1 °F 36.2 °F 30.9 °F 60% 29.81 in 10.0 mi SW 18.4 mph 27.6 mph N/A   Clear